Location: Eexterzandvoort
(53.0303°N, 6.7884°E)
Time: 06:15:32
(UTC+00:00)

Okean O Rocket - Pass Details

Date: 19 May 2025
Orbit: 614 x 636 km, 98.0° (Epoch: 22 June)

Event Time Altitude Azimuth Distance (km) Brightness Sun altitude
Rises 21:36:31 0° 224° (SW) 2,908 4.8 -13.0°
Reaches altitude 10° 21:40:58 10° 268° (W) 2,003 4.5 -13.3°
Maximum altitude 21:41:35 10° 276° (W) 1,987 4.6 -13.4°
Drops below altitude 10° 21:42:12 10° 284° (WNW) 2,003 4.7 -13.4°
Sets 21:46:40 0° 327° (NNW) 2,912 6.9 -13.7°
